Location: Brno
(49.2000°N, 16.6330°E)
Time: 06:01:12
(UTC+02:00)

BREEZE M DEB (TANK) - Visible Passes

Search period start: 01 October 2014 00:00
Search period end: 11 October 2014 00:00
Orbit: 305 x 12194 km, 49.5° (Epoch: 29 September)

Date Brightness Start Highest point End Pass type
(mag) Time Alt. Az. Time Alt. Az. Time Alt. Az.
01 Oct 3.7 06:17:39 10° SW 06:18:24 11° SSW 06:19:15 10° S visible
01 Oct 6.7 21:22:47 10° S 21:35:00 22° SSE 21:35:00 22° SSE visible
02 Oct 3.3 05:49:18 14° SW 05:49:36 14° SSW 05:51:09 10° S visible
02 Oct 6.6 20:53:31 10° S 21:07:40 21° SSE 21:07:40 21° SSE visible
03 Oct 3.4 05:21:41 16° S 05:21:41 16° S 05:22:43 10° SSE visible
03 Oct 6.6 20:24:42 10° S 20:40:02 19° SE 20:40:17 19° SE visible
04 Oct 4.2 04:54:02 11° SSE 04:54:02 11° SSE 04:54:08 10° SE visible
04 Oct 6.6 19:56:29 10° S 20:10:24 17° SE 20:12:51 16° SE visible
05 Oct 7.1 00:07:13 10° WSW 00:08:17 12° WSW 00:08:17 12° WSW visible
05 Oct 6.6 19:29:08 10° SSE 19:40:41 14° SE 19:45:22 13° ESE visible
05 Oct 6.8 23:36:28 10° SW 23:40:48 17° SW 23:40:48 17° SW visible
06 Oct 6.7 19:03:18 10° SSE 19:10:54 12° SE 19:16:13 10° ESE visible
06 Oct 6.5 23:05:35 10° SW 23:13:15 23° SW 23:13:15 23° SW visible
07 Oct 6.3 22:34:35 10° SW 22:45:40 29° SSW 22:45:40 29° SSW visible
08 Oct 6.0 22:03:33 10° SW 22:18:02 34° SSW 22:18:02 34° SSW visible
09 Oct 5.8 21:32:30 10° SSW 21:50:22 37° S 21:50:22 37° S visible
10 Oct 5.7 21:01:32 10° SSW 21:22:38 37° SSE 21:22:38 37° SSE visible
